Wind_Speed
24 24 25 25 25 25 23 21 22 21 22 21 21 21 21 20 19 19 19 17 17 17 16 16 16 16 15 15 15 14 14 14 13 12 12 11 11 10 9 9 8 8 8 8 8 7 7 6 6
26 26 26 27 27 26 23 22 23 23 23 22 22 23 22 22 21 20 19 18 18 18 17 17 17 17 16 16 15 15 15 14 14 13 13 12 12 11 11 10 10 10 10 10 9 8 8 7 7
27 27 28 28 27 25 22 22 24 25 23 23 24 24 24 23 22 21 20 20 19 19 19 19 18 18 17 17 16 16 16 15 15 14 14 13 13 12 12 12 11 11 11 11 11 10 9 9 9
28 29 29 29 27 25 24 25 25 25 25 25 26 26 25 24 23 22 21 21 21 20 20 20 19 19 19 18 18 17 17 17 16 15 16 15 14 14 14 13 12 12 12 12 12 11 11 11 10
30 31 30 30 28 25 27 27 26 26 26 26 27 27 26 25 24 23 23 23 23 22 22 21 21 21 20 20 19 19 19 18 18 17 17 17 16 15 15 15 14 13 13 13 13 13 13 13 12
31 32 32 31 28 28 28 28 28 29 28 28 28 29 27 27 26 26 25 25 25 24 23 23 22 22 22 21 21 20 20 20 19 19 18 18 17 17 16 16 15 15 14 14 14 14 14 14 14
32 32 33 32 31 30 30 29 30 30 30 29 30 30 28 28 28 27 27 27 26 26 25 24 24 23 23 22 22 21 20 21 21 20 20 19 19 18 18 17 17 17 16 16 15 15 15 15 15
34 34 34 34 33 32 32 32 32 32 31 31 31 31 30 29 30 29 29 28 28 27 27 26 25 24 24 23 23 22 22 22 21 21 21 21 20 20 19 19 18 18 18 17 17 17 17 17 17
36 36 34 33 34 34 34 34 33 33 33 33 33 33 32 31 32 31 31 30 29 28 28 27 27 26 25 25 24 23 23 23 23 22 22 22 22 21 21 21 20 20 20 20 19 19 19 19 19
37 37 35 34 35 35 36 36 35 35 34 34 34 34 34 33 33 32 32 32 31 30 29 28 28 27 27 26 26 25 25 25 24 24 23 23 22 22 22 22 22 22 22 22 22 21 21 21 21
37 37 36 36 37 37 37 37 37 37 36 35 35 35 36 35 34 34 33 33 33 32 31 30 29 29 28 27 26 27 26 26 25 25 25 24 23 23 23 24 24 23 23 23 24 23 23 23 23
37 38 38 38 38 38 38 38 37 38 38 38 37 37 37 36 35 34 35 35 34 33 32 32 31 31 30 29 28 28 28 28 27 26 26 26 25 25 24 25 25 24 24 24 24 25 25 24 24
37 37 38 39 39 39 40 40 39 38 38 39 39 39 38 37 37 36 36 36 36 36 35 33 33 33 32 31 31 30 29 28 28 28 27 27 27 27 26 26 26 26 25 25 26 26 26 26 26
37 38 39 39 39 40 41 42 41 39 40 40 40 39 39 38 38 38 38 38 37 37 37 36 35 35 34 33 32 31 30 30 30 30 29 29 29 29 28 28 28 28 27 27 27 27 28 27 27
37 38 39 39 40 41 42 43 42 41 41 41 40 40 40 39 39 39 39 39 38 38 38 38 37 36 36 35 33 33 33 32 32 32 32 31 31 30 30 30 30 29 29 29 29 29 29 29 29
38 38 39 38 38 40 42 43 42 42 42 41 41 41 41 40 40 40 40 40 39 39 39 39 38 38 38 37 36 35 34 34 34 33 33 32 32 32 32 32 32 31 31 31 31 31 30 30 30
38 38 39 39 38 39 42 42 41 43 43 43 43 42 41 41 41 41 41 41 41 41 40 40 40 39 39 39 38 37 36 36 35 35 34 34 34 33 33 33 34 34 33 33 33 33 32 32 32
38 38 38 39 38 39 41 41 42 43 44 44 44 43 43 43 43 42 42 42 42 42 42 42 42 41 41 40 40 39 38 38 37 37 36 36 36 35 35 35 35 35 35 35 34 34 34 34 34
39 39 38 38 38 40 41 41 41 42 44 44 45 44 44 44 45 44 44 44 44 44 44 44 44 44 42 42 42 41 41 40 39 39 38 38 38 38 37 37 37 37 37 36 36 36 35 35 36
38 39 39 39 40 41 42 42 41 42 43 44 44 45 45 45 45 45 45 45 45 46 46 45 45 45 44 44 43 43 42 42 42 41 40 40 39 39 39 39 39 38 37 37 38 38 37 37 37
38 39 39 39 40 41 42 43 42 42 43 44 45 45 45 45 46 46 46 46 47 47 47 47 46 46 46 45 45 45 45 44 44 43 42 41 41 41 41 41 40 40 40 39 39 39 39 39 40
39 38 39 39 40 41 42 44 42 42 43 44 45 45 45 46 46 46 46 47 47 48 48 48 48 47 46 47 48 47 46 46 45 44 44 44 43 43 43 43 42 42 42 41 42 41 41 41 41
39 38 39 39 41 42 42 44 42 42 42 43 43 44 45 45 46 46 46 47 47 48 48 49 49 48 47 47 48 47 47 47 47 46 46 46 45 45 45 45 44 44 44 44 44 44 43 43 43
38 38 39 40 41 43 41 43 43 41 41 41 42 42 43 44 45 45 46 47 47 48 48 49 48 49 49 49 49 49 49 49 49 49 48 48 47 47 47 47 47 46 46 46 45 46 46 45 45
38 37 38 40 42 43 41 43 42 40 40 40 40 41 42 43 43 44 45 46 47 47 48 48 48 49 49 50 50 51 51 50 50 50 50 49 50 50 49 48 48 48 49 48 48 48 47 48 47
37 37 37 39 40 40 40 41 40 39 39 39 39 40 41 42 42 43 43 45 46 47 48 48 48 49 50 50 51 51 52 52 52 51 51 51 51 51 51 51 51 50 51 51 50 50 50 50 49
36 36 36 37 38 39 39 40 38 37 36 37 38 38 39 40 41 42 43 43 45 46 47 48 48 48 49 51 51 52 52 52 52 52 52 52 52 52 52 52 53 52 51 52 52 52 52 51 51
36 35 35 36 37 38 39 38 37 36 35 36 37 38 38 39 40 41 42 43 44 45 46 47 47 49 49 50 51 51 52 52 53 53 54 53 53 53 53 54 54 54 54 54 54 54 53 54 53
35 35 36 36 37 38 38 38 36 37 36 36 36 37 38 39 40 41 43 44 44 45 46 46 47 48 50 50 51 52 52 53 53 53 54 54 53 54 54 55 55 55 55 55 56 55 55 56 55
35 35 35 36 37 38 39 39 36 37 36 36 37 37 38 39 40 42 43 43 44 45 46 46 47 48 50 51 52 52 52 53 54 54 53 54 53 54 54 55 55 55 56 56 57 57 56 56 56
Wind_Direction
251 252 253 253 253 253 254 253 252 250 249 250 251 251 252 253 254 255 255 254 252 250 250 249 248 248 249 250 250 250 249 247 247 248 250 249 247 247 247 248 250 251 251 250 248 248 248 249 253
250 251 251 252 252 254 255 254 252 251 250 250 249 249 250 252 253 254 253 253 252 250 248 247 246 248 249 250 252 252 250 248 249 248 250 251 252 252 253 252 251 254 252 252 249 248 248 249 252
250 250 250 251 252 254 256 254 252 252 250 249 249 249 250 250 251 252 252 252 251 250 249 248 248 249 250 250 250 251 253 254 253 252 251 252 254 255 256 255 253 256 254 252 250 247 248 251 255
251 249 249 250 252 253 253 252 253 254 252 250 249 249 249 249 250 251 251 251 251 250 250 250 249 250 251 251 250 251 253 254 254 254 255 253 255 256 256 255 255 256 254 251 249 249 251 254 256
251 250 249 250 252 252 251 251 253 253 252 251 250 249 248 248 249 249 249 249 250 250 250 251 251 250 251 252 252 252 254 253 253 253 255 253 253 253 255 256 255 255 254 251 252 254 256 257 258
252 252 251 252 252 251 251 252 252 252 251 250 250 249 248 249 249 249 250 250 249 250 251 251 252 251 251 252 253 253 252 252 252 253 254 255 255 255 255 255 256 256 256 255 255 257 258 259 259
254 253 253 253 251 250 251 252 250 251 251 250 250 250 249 249 250 249 250 250 250 250 250 251 252 250 250 251 251 252 251 252 252 253 254 254 255 256 256 257 257 257 257 256 256 257 259 260 261
255 254 253 253 253 251 251 251 250 250 251 250 250 250 250 250 251 250 250 250 250 250 249 250 251 251 250 251 251 250 251 252 252 252 253 253 254 256 257 258 258 258 259 258 257 259 259 260 262
255 254 254 254 254 252 251 250 251 251 251 250 251 251 251 250 251 251 250 250 250 251 250 248 249 250 251 251 250 250 251 252 252 252 253 254 256 257 258 258 257 258 259 259 259 260 261 262 264
255 254 254 253 252 252 251 250 250 250 250 250 251 252 252 251 251 251 250 250 250 250 251 250 250 250 250 250 249 250 252 252 252 253 254 255 257 258 259 259 259 259 260 260 260 261 263 264 264
255 255 253 252 251 251 251 251 250 250 250 250 251 251 252 251 251 251 250 250 250 250 250 251 250 249 249 250 250 251 252 252 253 254 255 256 257 259 259 260 261 260 261 261 261 263 264 264 264
257 255 254 251 250 251 251 251 250 250 250 250 250 250 251 251 251 251 250 250 249 249 249 248 248 248 249 250 250 251 252 253 253 255 256 257 259 260 260 261 262 262 261 261 262 263 264 264 264
258 257 255 254 252 252 251 251 251 250 251 250 250 251 252 252 251 250 249 249 249 249 248 248 248 248 249 250 251 251 253 254 255 256 257 258 258 260 260 261 262 262 261 262 262 264 264 264 264
259 258 257 255 255 253 252 251 251 252 252 252 251 251 252 252 250 249 249 249 249 249 248 248 248 247 247 249 251 252 253 255 256 256 257 259 260 260 261 262 262 262 262 263 264 264 264 264 263
261 260 258 257 256 255 254 252 252 252 252 252 252 252 252 251 250 249 248 248 249 249 249 248 248 247 248 249 251 252 253 255 256 256 258 259 260 260 261 262 262 262 263 264 265 265 264 263 262
261 260 260 259 257 256 255 255 252 251 251 252 252 252 252 251 250 249 249 249 248 249 249 248 248 248 249 250 251 251 253 255 256 256 258 259 260 261 261 262 262 263 264 265 264 264 263 262 262
261 262 262 261 259 258 257 256 254 253 252 252 252 252 252 252 251 250 249 249 249 249 249 248 248 248 249 250 251 251 253 254 256 257 257 259 260 261 262 263 263 264 264 264 264 262 261 261 261
264 264 263 262 261 260 259 258 256 255 254 253 253 253 253 252 251 250 249 249 249 249 249 249 249 248 250 251 252 253 253 254 256 257 258 259 260 262 263 263 263 264 264 264 264 262 261 261 261
263 263 263 262 261 261 260 259 258 256 255 254 254 253 253 252 251 250 249 249 249 250 250 249 250 250 251 251 252 253 253 254 255 256 257 259 260 262 263 264 264 264 264 265 264 263 263 262 261
262 262 262 261 262 262 261 259 259 258 256 255 254 254 253 252 252 251 250 249 250 250 250 250 251 251 251 251 252 252 253 255 256 256 257 259 260 261 263 264 265 264 264 264 264 264 263 263 263
261 262 262 263 262 261 261 259 259 259 258 256 255 255 254 253 252 251 251 250 250 249 250 251 252 252 252 251 252 252 254 255 257 257 258 259 260 261 262 263 264 264 263 264 265 265 265 264 264
263 264 265 264 263 263 263 263 259 259 258 257 256 255 254 253 252 251 250 250 250 250 250 250 251 252 252 252 252 253 254 255 256 257 258 259 260 261 262 263 263 264 264 264 265 266 266 265 265
265 265 265 265 263 263 263 264 262 260 259 258 257 256 255 254 253 251 250 250 250 250 251 251 251 251 252 251 252 253 253 254 256 257 258 259 260 261 262 262 263 264 264 265 266 266 265 265 265
265 264 264 264 264 263 264 266 265 262 261 259 258 257 256 255 254 252 251 250 250 250 251 251 251 252 251 251 252 253 254 254 255 256 257 259 260 261 262 262 263 264 264 265 266 266 265 265 264
263 263 264 264 264 265 265 266 266 265 263 261 259 257 256 256 255 254 252 251 251 251 251 251 251 251 252 252 252 254 255 255 256 257 257 258 260 261 262 262 263 264 264 265 265 266 266 265 264
263 263 263 265 267 268 267 266 267 266 264 262 259 257 256 256 256 254 253 252 251 251 251 251 251 252 253 253 254 255 255 256 257 258 258 259 260 261 261 262 263 264 264 265 265 266 266 265 264
261 260 261 264 265 266 266 266 266 267 265 263 260 258 258 257 256 255 253 253 252 252 252 252 252 252 253 254 255 255 256 257 257 258 259 259 260 261 261 262 264 264 264 264 265 266 266 265 265
261 261 260 260 263 264 265 266 267 267 267 266 264 261 259 258 257 256 255 254 254 253 253 253 253 252 253 255 255 256 257 258 258 259 259 260 261 262 262 263 264 264 264 265 265 265 265 265 265
261 260 260 260 261 263 266 266 267 268 268 267 265 262 260 259 258 257 256 256 255 255 255 255 254 254 254 255 256 257 258 258 259 260 261 261 262 263 264 264 265 264 265 265 266 265 265 265 264
263 262 261 260 261 262 264 265 265 267 268 267 266 263 262 260 259 257 257 257 257 256 257 256 256 256 256 256 257 258 259 259 260 260 261 262 262 263 264 265 265 265 265 266 266 266 265 264 264
Height
5801 5802 5803 5804 5806 5807 5808 5810 5811 5812 5813 5815 5816 5817 5818 5819 5821 5824 5823 5823 5824 5825 5826 5827 5828 5829 5830 5831 5832 5833 5833 5834 5835 5835 5836 5837 5838 5838 5839 5840 5840 5841 5841 5841 5842 5843 5843 5844 5845
5796 5798 5799 5800 5801 5802 5805 5807 5807 5807 5810 5811 5812 5813 5814 5815 5817 5818 5819 5820 5821 5822 5823 5824 5825 5826 5827 5828 5829 5830 5831 5832 5832 5833 5834 5835 5835 5836 5837 5838 5838 5839 5839 5840 5840 5841 5842 5842 5843
5791 5792 5794 5795 5796 5798 5801 5802 5802 5803 5806 5807 5808 5809 5810 5812 5813 5814 5815 5816 5817 5819 5820 5821 5822 5823 5824 5825 5826 5827 5828 5829 5830 5831 5832 5832 5833 5834 5835 5835 5836 5837 5837 5838 5838 5839 5840 5840 5841
5786 5787 5789 5790 5792 5795 5796 5797 5797 5799 5801 5802 5803 5805 5806 5808 5809 5811 5811 5812 5814 5815 5816 5818 5819 5820 5821 5822 5823 5824 5825 5826 5827 5828 5829 5830 5830 5831 5832 5833 5834 5834 5835 5835 5836 5837 5837 5838 5839
5780 5781 5783 5784 5787 5790 5790 5792 5793 5795 5796 5797 5799 5800 5802 5803 5805 5806 5807 5808 5810 5811 5813 5814 5815 5816 5817 5818 5819 5820 5822 5823 5824 5825 5826 5826 5827 5828 5829 5830 5831 5831 5832 5833 5833 5834 5835 5835 5836
5774 5775 5777 5779 5782 5784 5785 5787 5788 5789 5791 5792 5793 5795 5797 5799 5800 5802 5803 5804 5805 5807 5808 5809 5811 5812 5813 5815 5816 5817 5818 5819 5820 5821 5822 5823 5824 5825 5826 5827 5828 5828 5829 5830 5830 5831 5832 5833 5833
5768 5769 5770 5773 5775 5777 5779 5780 5781 5783 5785 5787 5788 5789 5792 5793 5795 5796 5798 5799 5800 5802 5803 5805 5806 5808 5809 5810 5811 5813 5814 5815 5816 5817 5819 5820 5820 5821 5822 5823 5824 5825 5826 5826 5827 5828 5829 5829 5830
5760 5762 5764 5766 5768 5771 5772 5773 5774 5776 5779 5781 5782 5783 5786 5788 5789 5791 5792 5793 5795 5797 5798 5800 5801 5803 5804 5806 5807 5808 5810 5811 5812 5813 5814 5815 5816 5817 5818 5819 5820 5821 5822 5823 5823 5824 5825 5826 5826
5752 5755 5757 5760 5761 5763 5764 5766 5768 5770 5772 5774 5775 5777 5779 5782 5783 5785 5786 5788 5789 5791 5793 5795 5796 5798 5799 5801 5802 5803 5805 5806 5807 5809 5810 5811 5812 5813 5814 5815 5816 5817 5817 5818 5819 5820 5821 5821 5822
5744 5746 5750 5752 5753 5755 5756 5758 5760 5763 5765 5766 5768 5770 5772 5775 5776 5778 5780 5782 5783 5785 5787 5789 5790 5792 5794 5795 5797 5798 5800 5801 5803 5804 5805 5806 5807 5808 5809 5810 5811 5812 5813 5814 5814 5815 5816 5817 5818
5736 5738 5741 5743 5744 5746 5748 5750 5752 5755 5757 5759 5761 5763 5764 5767 5769 5771 5773 5775 5777 5779 5781 5783 5785 5786 5788 5789 5791 5793 5794 5796 5797 5798 5800 5801 5802 5803 5804 5805 5806 5807 5807 5808 5809 5810 5811 5812 5813
5728 5730 5732 5733 5735 5737 5739 5741 5744 5746 5749 5751 5753 5755 5757 5759 5762 5764 5766 5768 5770 5772 5774 5776 5778 5780 5781 5783 5785 5787 5789 5790 5792 5793 5794 5795 5796 5797 5798 5799 5800 5801 5802 5803 5804 5804 5805 5806 5807
5719 5721 5723 5724 5726 5728 5730 5732 5735 5737 5740 5742 5745 5747 5749 5751 5754 5756 5758 5760 5762 5764 5767 5769 5771 5773 5774 5776 5778 5780 5782 5784 5785 5787 5788 5789 5790 5791 5792 5793 5794 5795 5796 5797 5798 5798 5799 5800 5801
5710 5712 5713 5715 5717 5719 5720 5723 5725 5729 5731 5733 5736 5738 5740 5743 5745 5747 5750 5752 5754 5757 5759 5761 5764 5766 5767 5769 5771 5774 5776 5777 5779 5780 5782 5783 5784 5785 5786 5787 5788 5789 5789 5790 5791 5792 5793 5794 5795
5701 5702 5704 5706 5708 5709 5710 5713 5717 5720 5722 5724 5727 5729 5731 5734 5736 5738 5741 5743 5746 5748 5751 5753 5755 5758 5760 5762 5764 5766 5768 5770 5772 5773 5775 5776 5777 5778 5779 5780 5781 5782 5782 5783 5784 5785 5786 5787 5788
5691 5692 5694 5697 5698 5699 5701 5703 5708 5710 5712 5715 5717 5719 5722 5724 5727 5729 5732 5734 5737 5739 5742 5744 5747 5750 5752 5754 5756 5758 5760 5762 5764 5765 5767 5768 5769 5771 5772 5773 5774 5774 5775 5775 5776 5777 5778 5780 5781
5682 5683 5685 5687 5688 5689 5690 5693 5697 5699 5701 5704 5707 5709 5712 5715 5717 5720 5722 5725 5728 5730 5733 5736 5739 5742 5744 5746 5748 5750 5752 5754 5756 5757 5759 5760 5761 5762 5764 5765 5766 5766 5767 5768 5768 5769 5770 5772 5773
5674 5675 5675 5676 5678 5679 5680 5683 5686 5688 5690 5693 5696 5699 5702 5705 5707 5710 5712 5715 5718 5721 5724 5727 5730 5732 5735 5737 5739 5741 5743 5745 5747 5749 5750 5752 5753 5754 5755 5756 5757 5758 5758 5759 5760 5761 5762 5763 5764
5664 5664 5665 5667 5668 5669 5670 5672 5675 5677 5680 5683 5685 5688 5691 5694 5696 5699 5702 5705 5708 5711 5715 5718 5720 5723 5725 5728 5730 5732 5734 5736 5738 5740 5741 5743 5744 5745 5746 5747 5748 5749 5750 5750 5751 5752 5753 5754 5755
5654 5654 5656 5657 5658 5658 5660 5662 5665 5666 5669 5672 5674 5677 5680 5683 5685 5689 5692 5695 5698 5701 5704 5707 5710 5712 5715 5717 5719 5722 5724 5726 5728 5730 5732 5733 5734 5735 5736 5737 5738 5739 5740 5741 5742 5743 5743 5744 5746
5643 5645 5646 5647 5647 5647 5649 5651 5654 5656 5658 5660 5663 5666 5668 5671 5674 5677 5680 5683 5686 5689 5692 5695 5698 5701 5704 5706 5708 5711 5713 5715 5718 5719 5721 5723 5724 5725 5726 5727 5728 5729 5730 5731 5732 5732 5734 5735 5736
5634 5635 5635 5636 5636 5637 5639 5638 5644 5645 5647 5649 5652 5654 5657 5660 5663 5665 5668 5671 5674 5678 5681 5683 5687 5690 5692 5695 5697 5700 5702 5705 5707 5708 5710 5712 5713 5714 5716 5717 5718 5719 5720 5720 5721 5722 5723 5724 5725
5624 5624 5625 5625 5625 5625 5627 5627 5631 5633 5635 5638 5640 5643 5645 5648 5651 5654 5656 5659 5662 5665 5668 5671 5674 5677 5680 5683 5685 5688 5690 5693 5695 5696 5698 5700 5702 5703 5704 5706 5707 5708 5708 5709 5710 5711 5711 5712 5713
5613 5614 5614 5613 5613 5614 5618 5616 5618 5622 5625 5627 5629 5632 5634 5636 5639 5641 5644 5647 5650 5653 5656 5659 5662 5665 5668 5670 5673 5675 5678 5680 5682 5684 5686 5688 5690 5691 5692 5693 5695 5696 5697 5697 5698 5698 5699 5700 5701
5603 5604 5604 5603 5602 5604 5608 5606 5608 5612 5614 5616 5618 5620 5622 5624 5627 5630 5633 5635 5638 5641 5644 5646 5650 5652 5655 5658 5660 5663 5665 5667 5669 5671 5673 5675 5677 5678 5680 5680 5682 5683 5684 5684 5685 5686 5687 5687 5688
5593 5594 5595 5595 5594 5595 5596 5596 5600 5602 5603 5604 5607 5609 5611 5613 5616 5618 5621 5623 5626 5629 5631 5634 5637 5640 5643 5645 5647 5650 5652 5654 5656 5658 5660 5661 5663 5665 5666 5667 5668 5669 5670 5671 5672 5673 5674 5674 5675
5583 5584 5585 5585 5585 5585 5586 5588 5590 5592 5593 5594 5596 5598 5600 5602 5604 5607 5609 5612 5614 5617 5619 5622 5625 5628 5630 5632 5634 5637 5639 5641 5643 5644 5646 5648 5649 5651 5652 5653 5654 5655 5656 5657 5658 5659 5660 5661 5662
5574 5575 5575 5575 5575 5575 5577 5579 5581 5582 5583 5584 5585 5587 5589 5591 5593 5595 5598 5600 5602 5605 5607 5609 5612 5615 5617 5619 5621 5623 5625 5627 5629 5631 5632 5634 5635 5636 5637 5639 5640 5641 5642 5643 5644 5645 5645 5646 5647
5564 5565 5565 5565 5566 5567 5567 5572 5572 5573 5574 5575 5575 5576 5578 5580 5582 5584 5586 5588 5590 5593 5595 5597 5599 5602 5604 5606 5608 5610 5612 5613 5615 5616 5618 5619 5621 5622 5623 5624 5625 5626 5627 5628 5628 5629 5630 5631 5632
5553 5555 5556 5557 5557 5557 5558 5563 5563 5563 5564 5565 5565 5566 5568 5569 5571 5572 5574 5576 5578 5580 5582 5585 5587 5589 5590 5592 5594 5596 5598 5599 5601 5602 5604 5605 5606 5607 5608 5609 5609 5610 5611 5612 5613 5613 5614 5616 5617